H1 CPF 2 NER 2021 2 7 9 038 01 glonass137 H2 1705501 9137 42939 2021 2 7 0 0 0 2021 2 10 23 45 0 900 1 1 0 0 0 1 H9 10 0 59252 0.00000 0 10853048.814 -22473131.349 5266278.952 10 0 59252 900.00000 0 10970040.687 -22929155.405 2105348.913 10 0 59252 1800.00000 0 10883529.064 -23039651.753 -1096493.023 10 0 59252 2700.00000 0 10641884.953 -22779331.002 -4277020.914 10 0 59252 3600.00000 0 10298351.394 -22135213.490 -7374412.889 10 0 59252 4500.00000 0 9908574.194 -21107305.675 -10328457.160 10 0 59252 5400.00000 0 9528041.348 -19708747.757 -13081726.764 10 0 59252 6300.00000 0 9209540.172 -17965425.302 -15580699.682 10 0 59252 7200.00000 0 9000740.458 -15915060.595 -17776801.999 10 0 59252 8100.00000 0 8942006.481 -13605821.223 -19627353.664 10 0 59252 9000.00000 0 9064530.849 -11094503.642 -21096398.411 10 0 59252 9900.00000 0 9388869.465 -8444367.315 -22155401.809 10 0 59252 10800.00000 0 9923939.794 -5722709.377 -22783804.202 10 0 59252 11700.00000 0 10666525.040 -2998280.476 -22969418.160 10 0 59252 12600.00000 0 11601305.442 -338648.955 -22708663.041 10 0 59252 13500.00000 0 12701415.791 2192377.599 -22006632.470 10 0 59252 14400.00000 0 13929506.082 4537166.942 -20876993.576 10 0 59252 15300.00000 0 15239261.131 6646413.232 -19341720.027 10 0 59252 16200.00000 0 16577315.664 8480936.061 -17430664.009 10 0 59252 17100.00000 0 17885484.750 10013053.647 -15180975.268 10 0 59252 18000.00000 0 19103216.020 11227474.052 -12636378.389 10 0 59252 18900.00000 0 20170160.747 12121668.532 -9846322.170 10 0 59252 19800.00000 0 21028755.651 12705712.805 -6865017.507 10 0 59252 20700.00000 0 21626706.682 13001604.212 -3750382.595 10 0 59252 21600.00000 0 21919270.079 13042084.913 -562916.080 10 0 59252 22500.00000 0 21871234.408 12869021.915 2635479.736 10 0 59252 23400.00000 0 21458519.852 12531413.390 5782702.333 10 0 59252 24300.00000 0 20669327.151 12083106.402 8817655.382 10 0 59252 25200.00000 0 19504787.492 11580323.225 11681434.469 10 0 59252 26100.00000 0 17979085.727 11079101.250 14318468.860 10 0 59252 27000.00000 0 16119051.332 10632754.991 16677597.234 10 0 59252 27900.00000 0 13963233.736 10289467.458 18713056.747 10 0 59252 28800.00000 0 11560500.203 10090112.519 20385366.579 10 0 59252 29700.00000 0 8968214.117 10066399.977 21662089.418 10 0 59252 30600.00000 0 6250068.791 10239421.396 22518456.745 10 0 59252 31500.00000 0 3473666.131 10618657.853 22937846.347 10 0 59252 32400.00000 0 707939.771 11201491.458 22912103.343 10 0 59252 33300.00000 0 -1979471.392 11973241.509 22441698.787 10 0 59252 34200.00000 0 -4524791.255 12907724.225 21535722.846 10 0 59252 35100.00000 0 -6870510.655 13968313.294 20211712.496 10 0 59252 36000.00000 0 -8967528.822 15109457.479 18495316.626 10 0 59252 36900.00000 0 -10776943.967 16278592.393 16419804.428 10 0 59252 37800.00000 0 -12271419.370 17418366.925 14025425.868 10 0 59252 38700.00000 0 -13436068.775 18469091.342 11358635.855 10 0 59252 39600.00000 0 -14268824.747 19371304.443 8471196.551 10 0 59252 40500.00000 0 -14780275.236 20068351.849 5419174.740 10 0 59252 41400.00000 0 -14992975.903 20508866.561 2261853.442 10 0 59252 42300.00000 0 -14940267.676 20649046.772 -939421.002 10 0 59252 43200.00000 0 -14664650.132 20454634.128 -4122433.731 10 0 59252 44100.00000 0 -14215779.989 19902508.115 -7225314.394 10 0 59252 45000.00000 0 -13648179.990 18981828.348 -10187744.137 10 0 59252 45900.00000 0 -13018755.766 17694675.580 -12952132.497 10 0 59252 46800.00000 0 -12384226.354 16056163.425 -15464740.759 10 0 59252 47700.00000 0 -11798577.612 14094015.178 -17676729.428 10 0 59252 48600.00000 0 -11310646.727 11847622.649 -19545109.221 10 0 59252 49500.00000 0 -10961940.192 9366625.638 -21033577.085 10 0 59252 50400.00000 0 -10784777.678 6709070.882 -22113221.036 10 0 59252 51300.00000 0 -10800840.228 3939226.701 -22763080.452 10 0 59252 52200.00000 0 -11020184.049 1125143.828 -22970551.303 10 0 59252 53100.00000 0 -11440761.473 -1663936.493 -22731628.767 10 0 59252 54000.00000 0 -12048469.270 -4360220.035 -22050982.874 10 0 59252 54900.00000 0 -12817722.309 -6899933.755 -20941865.898 10 0 59252 55800.00000 0 -13712528.493 -9225730.287 -19425853.386 10 0 59252 56700.00000 0 -14688019.829 -11288823.667 -17532423.807 10 0 59252 57600.00000 0 -15692375.264 -13050768.343 -15298384.847 10 0 59252 58500.00000 0 -16669054.437 -14484808.332 -12767157.325 10 0 59252 59400.00000 0 -17559248.259 -15576741.397 -9987930.505 10 0 59252 60300.00000 0 -18304443.029 -16325263.344 -7014705.064 10 0 59252 61200.00000 0 -18848989.853 -16741779.250 -3905242.422 10 0 59252 62100.00000 0 -19142570.785 -16849690.868 -719940.968 10 0 59252 63000.00000 0 -19142457.422 -16683191.450 2479338.783 10 0 59252 63900.00000 0 -18815466.321 -16285619.841 5630476.812 10 0 59252 64800.00000 0 -18139528.443 -15707444.316 8672300.392 10 0 59252 65700.00000 0 -17104806.029 -15003962.019 11545771.332 10 0 59252 66600.00000 0 -15714309.472 -14232811.688 14195130.394 10 0 59252 67500.00000 0 -13983987.676 -13451405.014 16568976.736 10 0 59252 68400.00000 0 -11942287.495 -12714385.114 18621261.657 10 0 59252 69300.00000 0 -9629199.966 -12071219.179 20312177.713 10 0 59252 70200.00000 0 -7094832.421 -11564026.499 21608926.548 10 0 59252 71100.00000 0 -4397564.998 -11225732.964 22486351.155 10 0 59252 72000.00000 0 -1601867.382 -11078629.344 22927420.890 10 0 59252 72900.00000 0 1224134.571 -11133393.695 22923560.374 10 0 59252 73800.00000 0 4011242.495 -11388618.837 22474816.191 10 0 59252 74700.00000 0 6691813.236 -11830864.829 21589858.237 10 0 59252 75600.00000 0 9202322.770 -12435234.463 20285815.534 10 0 59252 76500.00000 0 11485760.918 -13166448.033 18587949.209 10 0 59252 77400.00000 0 13493758.191 -13980372.720 16529168.413 10 0 59252 78300.00000 0 15188357.150 -14825942.833 14149397.784 10 0 59252 79200.00000 0 16543355.127 -15647390.581 11494807.982 10 0 59252 80100.00000 0 17545162.826 -16386693.754 8616923.584 10 0 59252 81000.00000 0 18193143.418 -16986137.254 5571625.149 10 0 59252 81900.00000 0 18499418.463 -17390880.263 2418064.541 10 0 59252 82800.00000 0 18488149.260 -17551420.282 -782485.354 10 0 59252 83700.00000 0 18194324.476 -17425849.309 -3967823.924 10 0 59252 84600.00000 0 17662105.716 -16981805.978 -7076035.561 10 0 59252 85500.00000 0 16942801.469 -16198040.218 -10046697.512 10 0 59253 0.00000 0 16092555.603 -15065523.367 -12822058.795 10 0 59253 900.00000 0 15169848.780 -13588055.267 -15348166.955 10 0 59253 1800.00000 0 14232918.436 -11782343.032 -17575919.484 10 0 59253 2700.00000 0 13337207.627 -9677545.008 -19462020.197 10 0 59253 3600.00000 0 12532949.589 -7314300.063 -20969821.278 10 0 59253 4500.00000 0 11862990.900 -4743280.747 -22070034.843 10 0 59253 5400.00000 0 11360944.574 -2023330.456 -22741300.578 10 0 59253 6300.00000 0 11049750.820 780738.619 -22970598.717 10 0 59253 7200.00000 0 10940705.821 3600595.606 -22753500.706 10 0 59253 8100.00000 0 11032999.031 6366987.935 -22094253.025 10 0 59253 9000.00000 0 11313778.173 9012377.906 -21005692.750 10 0 59253 9900.00000 0 11758738.839 11473509.832 -19508996.582 10 0 59253 10800.00000 0 12333213.599 13693801.843 -17633268.201 10 0 59253 11700.00000 0 12993714.532 15625463.606 -15414971.788 10 0 59253 12600.00000 0 13689863.940 17231252.547 -12897222.609 10 0 59253 13500.00000 0 14366631.669 18485796.306 -10128948.255 10 0 59253 14400.00000 0 14966784.435 19376427.176 -7163936.720 10 0 59253 15300.00000 0 15433443.520 19903494.666 -4059789.896 10 0 59253 16200.00000 0 15712642.562 20080144.221 -876802.941 10 0 59253 17100.00000 0 15755777.056 19931572.560 2323208.514 10 0 59253 18000.00000 0 15521841.746 19493792.012 5478110.099 10 0 59253 18900.00000 0 14979361.012 18811956.889 8526655.769 10 0 59253 19800.00000 0 14107930.313 17938323.270 11409676.514 10 0 59253 20700.00000 0 12899303.199 16929928.806 14071227.350 10 0 59253 21600.00000 0 11357977.495 15846090.764 16459670.451 10 0 59253 22500.00000 0 9501255.306 14745827.860 18528673.554 10 0 59253 23400.00000 0 7358773.533 13685314.373 20238104.644 10 0 59253 24300.00000 0 4971523.566 12715473.365 21554806.104 10 0 59253 25200.00000 0 2390400.047 11879809.738 22453233.947 10 0 59253 26100.00000 0 -325661.940 11212573.651 22915950.299 10 0 59253 27000.00000 0 -3111884.938 10737330.845 22933960.114 10 0 59253 27900.00000 0 -5900092.399 10465999.391 22506885.937 10 0 59253 28800.00000 0 -8621296.864 10398392.956 21642977.377 10 0 59253 29700.00000 0 -11208326.786 10522289.523 20358954.987 10 0 59253 30600.00000 0 -13598384.047 10814022.679 18679691.122 10 0 59253 31500.00000 0 -15735426.700 11239570.740 16637733.384 10 0 59253 32400.00000 0 -17572278.683 11756098.134 14272679.145 10 0 59253 33300.00000 0 -19072379.202 12313884.396 11630412.502 10 0 59253 34200.00000 0 -20211099.212 12858559.682 8762217.847 10 0 59253 35100.00000 0 -20976570.373 13333552.534 5723786.714 10 0 59253 36000.00000 0 -21369992.067 13682646.413 2574136.885 10 0 59253 36900.00000 0 -21405403.902 13852536.602 -625535.198 10 0 59253 37800.00000 0 -21108933.622 13795278.753 -3813046.195 10 0 59253 38700.00000 0 -20517552.500 13470524.735 -6926438.236 10 0 59253 39600.00000 0 -19677391.130 12847450.244 -9905187.633 10 0 59253 40500.00000 0 -18641687.174 11906291.619 -12691385.846 10 0 59253 41400.00000 0 -17468452.145 10639425.755 -15230869.170 10 0 59253 42300.00000 0 -16217956.175 9051946.413 -17474274.633 10 0 59253 43200.00000 0 -14950137.204 7161711.473 -19378001.345 10 0 59253 44100.00000 0 -13722044.051 4998857.944 -20905058.536 10 0 59253 45000.00000 0 -12585421.168 2604804.068 -22025783.872 10 0 59253 45900.00000 0 -11584536.599 30779.242 -22718418.380 10 0 59253 46800.00000 0 -10754344.223 -2664057.786 -22969527.182 10 0 59253 47700.00000 0 -10119057.116 -5414834.745 -22774258.195 10 0 59253 48600.00000 0 -9691191.385 -8153424.200 -22136434.138 10 0 59253 49500.00000 0 -9471120.016 -10811042.937 -21068476.272 10 0 59253 50400.00000 0 -9447154.840 -13320884.813 -19591161.445 10 0 59253 51300.00000 0 -9596152.464 -15620678.287 -17733217.176 10 0 59253 52200.00000 0 -9884618.069 -17655062.871 -15530762.460 10 0 59253 53100.00000 0 -10270259.993 -19377686.113 -13026605.070 10 0 59253 54000.00000 0 -10703929.070 -20752934.436 -10269408.793 10 0 59253 54900.00000 0 -11131860.393 -21757226.308 -7312746.678 10 0 59253 55800.00000 0 -11498122.408 -22379814.452 -4214058.752 10 0 59253 56700.00000 0 -11747169.423 -22623064.409 -1033534.551 10 0 59253 57600.00000 0 -11826389.191 -22502198.700 2167057.599 10 0 59253 58500.00000 0 -11688537.412 -22044518.248 5325571.425 10 0 59253 59400.00000 0 -11293955.818 -21288134.732 8380690.046 10 0 59253 60300.00000 0 -10612479.595 -20280267.969 11273116.107 10 0 59253 61200.00000 0 -9624953.143 -19075180.671 13946721.351 10 0 59253 62100.00000 0 -8324289.647 -17731837.890 16349633.359 10 0 59253 63000.00000 0 -6716029.114 -16311389.847 18435238.585 10 0 59253 63900.00000 0 -4818370.670 -14874583.889 20163082.530 10 0 59253 64800.00000 0 -2661676.731 -13479214.056 21499650.170 10 0 59253 65700.00000 0 -287468.675 -12177714.736 22419012.115 10 0 59253 66600.00000 0 2253045.223 -11014998.763 22903324.533 10 0 59253 67500.00000 0 4900849.596 -10026629.807 22943173.688 10 0 59253 68400.00000 0 7591332.650 -9237404.886 22537758.745 10 0 59253 69300.00000 0 10256737.058 -8660405.733 21694909.380 10 0 59253 70200.00000 0 12828750.507 -8296558.186 20430937.737 10 0 59253 71100.00000 0 15241129.414 -8134717.640 18770327.150 10 0 59253 72000.00000 0 17432247.595 -8152276.723 16745263.096 10 0 59253 72900.00000 0 19347464.631 -8316269.486 14395014.744 10 0 59253 73800.00000 0 20941215.825 -8584925.588 11765178.300 10 0 59253 74700.00000 0 22178736.820 -8909608.955 8906796.220 10 0 59253 75600.00000 0 23037351.083 -9237059.030 5875368.830 10 0 59253 76500.00000 0 23507266.462 -9511839.729 2729777.238 10 0 59253 77400.00000 0 23591847.466 -9678892.199 -468861.500 10 0 59253 78300.00000 0 23307351.989 -9686082.829 -3658384.515 10 0 59253 79200.00000 0 22682143.726 -9486637.898 -6776795.026 10 0 59253 80100.00000 0 21755413.668 -9041360.924 -9763471.774 10 0 59253 81000.00000 0 20575464.884 -8320537.838 -12560351.892 10 0 59253 81900.00000 0 19197633.216 -7305448.271 -15113063.638 10 0 59253 82800.00000 0 17681931.876 -5989417.991 -17371986.421 10 0 59253 83700.00000 0 16090519.441 -4378366.853 -19293217.240 10 0 59253 84600.00000 0 14485098.030 -2490827.986 -20839424.691 10 0 59253 85500.00000 0 12924351.135 -357436.301 -21980573.968 10 0 59254 0.00000 0 11461528.607 1980093.329 -22694509.063 10 0 59254 900.00000 0 10142280.060 4470456.865 -22967381.240 10 0 59254 1800.00000 0 9002826.380 7054658.631 -22793915.740 10 0 59254 2700.00000 0 8068546.734 9668238.487 -22177511.942 10 0 59254 3600.00000 0 7353037.799 12243735.790 -21130175.306 10 0 59254 4500.00000 0 6857685.051 14713288.513 -19672282.418 10 0 59254 5400.00000 0 6571762.543 17011259.915 -17832183.812 10 0 59254 6300.00000 0 6473056.141 19076783.967 -15645652.062 10 0 59254 7200.00000 0 6528983.101 20856123.889 -13155185.805 10 0 59254 8100.00000 0 6698159.935 22304745.992 -10409182.992 10 0 59254 9000.00000 0 6932351.669 23389022.745 -7460999.321 10 0 59254 9900.00000 0 7178719.520 24087494.349 -4367910.219 10 0 59254 10800.00000 0 7382271.348 24391636.660 -1189996.614 10 0 59254 11700.00000 0 7488410.708 24306103.927 2011023.645 10 0 59254 12600.00000 0 7445476.136 23848436.843 5172995.634 10 0 59254 13500.00000 0 7207162.763 23048248.911 8234534.867 10 0 59254 14400.00000 0 6734723.336 21945925.961 11136218.781 10 0 59254 15300.00000 0 5998855.155 20590894.056 13821738.812 10 0 59254 16200.00000 0 4981192.721 19039528.987 16238990.707 10 0 59254 17100.00000 0 3675342.496 17352795.347 18341082.153 10 0 59254 18000.00000 0 2087415.534 15593714.286 20087238.433 10 0 59254 18900.00000 0 236034.659 13824765.870 21443589.112 10 0 59254 19800.00000 0 -1848185.177 12105334.359 22383821.111 10 0 59254 20700.00000 0 -4123662.770 10489302.737 22889686.025 10 0 59254 21600.00000 0 -6539341.310 9022896.261 22951352.453 10 0 59254 22500.00000 0 -9036583.020 7742864.327 22567596.792 10 0 59254 23400.00000 0 -11551390.256 6675075.813 21745828.946 10 0 59254 24300.00000 0 -14016861.942 5833585.775 20501952.308 10 0 59254 25200.00000 0 -16365784.378 5220211.821 18860060.330 10 0 59254 26100.00000 0 -18533249.534 4824637.304 16851974.986 10 0 59254 27000.00000 0 -20459192.575 4625036.509 14516635.381 10 0 59254 27900.00000 0 -22090743.404 4589195.154 11899347.549 10 0 59254 28800.00000 0 -23384294.277 4676078.762 9050909.379 10 0 59254 29700.00000 0 -24307197.190 4837782.464 6026627.110 10 0 59254 30600.00000 0 -24839019.925 5021779.581 2885242.120 10 0 59254 31500.00000 0 -24972307.919 5173373.499 -312211.064 10 0 59254 32400.00000 0 -24712819.840 5238248.523 -3503593.224 10 0 59254 33300.00000 0 -24079226.874 5165011.012 -6626871.841 10 0 59254 34200.00000 0 -23102288.344 4907612.310 -9621331.209 10 0 59254 35100.00000 0 -21823538.438 4427549.940 -12428757.170 10 0 59254 36000.00000 0 -20293539.484 3695752.827 -14994572.830 10 0 59254 36900.00000 0 -18569775.490 2694069.733 -17268902.622 10 0 59254 37800.00000 0 -16714274.759 1416296.935 -19207543.770 10 0 59254 38700.00000 0 -14791061.604 -131299.394 -20772826.166 10 0 59254 39600.00000 0 -12863544.216 -1929989.149 -21934344.011 10 0 59254 40500.00000 0 -10991948.108 -3949113.512 -22669545.246 10 0 59254 41400.00000 0 -9230902.325 -6147128.077 -22964167.730 10 0 59254 42300.00000 0 -7627279.035 -8473111.151 -22812513.989 10 0 59254 43200.00000 0 -6218376.151 -10868675.191 -22217559.593 10 0 59254 44100.00000 0 -5030518.128 -13270202.416 -21190893.272 10 0 59254 45000.00000 0 -4078132.509 -15611312.023 -19752490.061 10 0 59254 45900.00000 0 -3363339.697 -17825456.781 -17930321.892 10 0 59254 46800.00000 0 -2876071.987 -19848541.266 -15759813.051 10 0 59254 47700.00000 0 -2594715.630 -21621452.872 -13283150.972 10 0 59254 48600.00000 0 -2487247.814 -23092400.327 -10548465.574 10 0 59254 49500.00000 0 -2512819.515 -24218962.344 -7608892.942 10 0 59254 50400.00000 0 -2623716.560 -24969760.948 -4521541.610 10 0 59254 51300.00000 0 -2767615.160 -25325689.811 -1346381.613 10 0 59254 52200.00000 0 -2890035.797 -25280646.453 1854921.955 10 0 59254 53100.00000 0 -2936891.022 -24841738.011 5020207.767 10 0 59254 54000.00000 0 -2857018.769 -24028952.426 8088025.972 10 0 59254 54900.00000 0 -2604593.455 -22874309.268 10998831.022 10 0 59254 55800.00000 0 -2141312.476 -21420526.302 13696136.220 10 0 59254 56700.00000 0 -1438265.195 -19719258.063 16127607.600 10 0 59254 57600.00000 0 -477405.033 -17828980.453 18246076.086 10 0 59254 58500.00000 0 747437.968 -15812610.031 20010448.590 10 0 59254 59400.00000 0 2230047.457 -13734957.404 21386500.906 10 0 59254 60300.00000 0 3951836.297 -11660120.720 22347537.660 10 0 59254 61200.00000 0 5882387.675 -9648927.575 22874907.019 10 0 59254 62100.00000 0 7980500.394 -7756531.264 22958360.783 10 0 59254 63000.00000 0 10195696.053 -6030260.723 22596253.189 10 0 59254 63900.00000 0 12470126.514 -4507812.932 21795574.714 10 0 59254 64800.00000 0 14740803.529 -3215862.189 20571820.093 10 0 59254 65700.00000 0 16942058.842 -2169143.374 18948692.733 10 0 59254 66600.00000 0 19008133.222 -1370046.738 16957650.684 10 0 59254 67500.00000 0 20875787.323 -808740.375 14637302.267 10 0 59254 68400.00000 0 22486825.954 -463814.608 12032662.300 10 0 59254 69300.00000 0 23790430.527 -303420.661 9194282.702 10 0 59254 70200.00000 0 24745202.150 -286855.159 6177273.837 10 0 59254 71100.00000 0 25320829.609 -366523.101 3040235.193 10 0 59254 72000.00000 0 25499311.931 -490195.896 -155883.765 10 0 59254 72900.00000 0 25275683.843 -603468.322 -3348970.280 10 0 59254 73800.00000 0 24658213.246 -652309.703 -6476959.112 10 0 59254 74700.00000 0 23668062.119 -585600.483 -9479043.212 10 0 59254 75600.00000 0 22338424.871 -357545.848 -12296860.215 10 0 59254 76500.00000 0 20713180.299 70136.765 -14875631.053 10 0 59254 77400.00000 0 18845113.796 726349.792 -17165227.992 10 0 59254 78300.00000 0 16793784.523 1629147.319 -19121151.081 10 0 59254 79200.00000 0 14623127.071 2784729.499 -20705393.887 10 0 59254 80100.00000 0 12398888.133 4186943.028 -21887181.742 10 0 59254 81000.00000 0 10186005.419 5817309.678 -22643568.407 10 0 59254 81900.00000 0 8046038.067 7645582.741 -22959879.922 10 0 59254 82800.00000 0 6034755.564 9630808.919 -22829997.358 10 0 59254 83700.00000 0 4199985.163 11722852.122 -22256473.346 10 0 59254 84600.00000 0 2579806.755 13864316.289 -21250480.370 10 0 59254 85500.00000 0 1201169.659 15992787.495 -19831591.954 10 0 59255 0.00000 0 78987.811 18043302.374 -18027401.070 10 0 59255 900.00000 0 -784249.922 19950940.195 -15872982.753 10 0 59255 1800.00000 0 -1398339.793 21653430.814 -13410211.970 10 0 59255 2700.00000 0 -1784699.920 23093669.184 -10686948.845 10 0 59255 3600.00000 0 -1975214.066 24222032.332 -7756107.697 10 0 59255 4500.00000 0 -2010631.478 24998401.053 -4674627.648 10 0 59255 5400.00000 0 -1938591.830 25393802.184 -1502365.013 10 0 59255 6300.00000 0 -1811359.546 25391602.548 1699070.910 10 0 59255 7200.00000 0 -1683364.127 24988204.646 4867515.593 10 0 59255 8100.00000 0 -1608651.237 24193215.072 7941457.073 10 0 59255 9000.00000 0 -1638352.974 23029078.777 10861230.054 10 0 59255 9900.00000 0 -1818284.801 21530194.712 13570172.857 10 0 59255 10800.00000 0 -2186771.133 19741550.092 16015724.799 10 0 59255 11700.00000 0 -2772791.840 17716930.508 18150442.852 10 0 59255 12600.00000 0 -3594528.260 15516780.736 19932918.145 10 0 59255 13500.00000 0 -4658370.498 13205805.398 21328575.048 10 0 59255 14400.00000 0 -5958428.448 10850409.167 22310337.952 10 0 59255 15300.00000 0 -7476567.862 8516082.693 22859153.323 10 0 59255 16200.00000 0 -9182970.962 6264842.358 22964357.524 10 0 59255 17100.00000 0 -11037199.328 4152829.515 22623883.563 10 0 59255 18000.00000 0 -12989715.787 2228168.222 21844302.939 10 0 59255 18900.00000 0 -14983803.037 529169.613 20640701.660 10 0 59255 19800.00000 0 -16957800.129 -917043.334 19036392.470 10 0 59255 20700.00000 0 -18847564.432 -2095434.168 17062468.321 10 0 59255 21600.00000 0 -20589057.140 -3003437.897 14757205.050 10 0 59255 22500.00000 0 -22120944.863 -3650817.178 12165324.073 10 0 59255 23400.00000 0 -23387108.723 -4058996.526 9337128.755 10 0 59255 24300.00000 0 -24338955.897 -4259903.187 6327530.665 10 0 59255 25200.00000 0 -24937436.468 -4294364.176 3194984.246 10 0 59255 26100.00000 0 -25154680.451 -4210127.684 350.607 10 0 59255 27000.00000 0 -24975185.670 -4059593.160 -3194287.353 10 0 59255 27900.00000 0 -24396505.943 -3897346.815 -6326835.072 10 0 59255 28800.00000 0 -23429410.012 -3777607.615 -9336397.552 10 0 59255 29700.00000 0 -22097504.056 -3751692.792 -12164467.522 10 0 59255 30600.00000 0 -20436333.204 -3865611.047 -14756066.894 10 0 59255 31500.00000 0 -18491999.567 -4157886.190 -17060818.696 10 0 59255 32400.00000 0 -16319354.547 -4657704.145 -19033928.392 10 0 59255 33300.00000 0 -13979841.079 -5383462.482 -20637055.389 10 0 59255 34200.00000 0 -11539076.029 -6341784.495 -21839057.801 10 0 59255 35100.00000 0 -9064273.663 -7527040.186 -22616596.282 10 0 59255 36000.00000 0 -6621617.416 -8921395.142 -22954585.541 10 0 59255 36900.00000 0 -4273689.301 -10495385.997 -22846485.093 10 0 59255 37800.00000 0 -2077063.443 -12208999.100 -22294424.001 10 0 59255 38700.00000 0 -80163.235 -14013207.912 -21309157.402 10 0 59255 39600.00000 0 1678529.464 -15851905.362 -19909855.815 10 0 59255 40500.00000 0 3171839.591 -17664150.814 -18123731.330 10 0 59255 41400.00000 0 4384782.895 -19386638.105 -15985507.835 10 0 59255 42300.00000 0 5314933.083 -20956281.585 -13536745.446 10 0 59255 43200.00000 0 5972258.177 -22312812.114 -10825032.078 10 0 59255 44100.00000 0 6378434.418 -23401274.329 -7903057.752 10 0 59255 45000.00000 0 6565667.888 -24174320.449 -4827589.603 10 0 59255 45900.00000 0 6575074.820 -24594204.341 -1658367.634 10 0 59255 46800.00000 0 6454690.050 -24634392.057 1543057.221 10 0 59255 47700.00000 0 6257188.738 -24280721.097 4714519.749 10 0 59255 48600.00000 0 6037418.482 -23532059.650 7794448.308 10 0 59255 49500.00000 0 5849846.892 -22400438.054 10723060.170 10 0 59255 50400.00000 0 5746033.033 -20910646.910 13443520.850 10 0 59255 51300.00000 0 5772230.067 -19099318.594 15903044.945 10 0 59255 52200.00000 0 5967220.640 -17013530.471 18053917.260 10 0 59255 53100.00000 0 6360476.650 -14708988.043 19854414.674 10 0 59255 54000.00000 0 6970721.254 -12247863.516 21269611.376 10 0 59255 54900.00000 0 7804954.030 -9696379.399 22272052.461 10 0 59255 55800.00000 0 8857980.804 -7122237.207 22842283.342 10 0 59255 56700.00000 0 10112468.534 -4591997.398 22969225.285 10 0 59255 57600.00000 0 11539523.851 -2168518.577 22650390.143 10 0 59255 58500.00000 0 13099771.976 91438.573 21891930.271 10 0 59255 59400.00000 0 14744891.956 2139344.060 20708522.565 10 0 59255 60300.00000 0 16419545.108 3936680.438 19123088.532 10 0 59255 61200.00000 0 18063616.974 5456300.502 17166355.265 10 0 59255 62100.00000 0 19614679.837 6683305.174 14876265.169 10 0 59255 63000.00000 0 21010573.355 7615405.833 12297245.108 10 0 59255 63900.00000 0 22191995.467 8262756.669 9479348.501 10 0 59255 64800.00000 0 23104994.986 8647264.889 6477286.495 10 0 59255 65700.00000 0 23703260.993 8801408.502 3349366.594 10 0 59255 66600.00000 0 23950112.311 8766612.156 156359.406 10 0 59255 67500.00000 0 23820102.774 8591250.292 -3039684.369 10 0 59255 68400.00000 0 23300173.922 8328362.741 -6176643.356 10 0 59255 69300.00000 0 22390305.842 8033180.139 -9193537.163 10 0 59255 70200.00000 0 21103637.966 7760564.679 -12031716.178 10 0 59255 71100.00000 0 19466054.043 7562475.334 -14636005.773 10 0 59255 72000.00000 0 17515248.124 7485565.586 -16955782.095 10 0 59255 72900.00000 0 15299310.297 7569016.014 -18945958.241 10 0 59255 73800.00000 0 12874890.987 7842694.042 -20567861.521 10 0 59255 74700.00000 0 10305020.381 8325719.136 -21789984.747 10 0 59255 75600.00000 0 7656673.730 9025494.588 -22588597.224 10 0 59255 76500.00000 0 4998183.727 9937247.182 -22948203.896 10 0 59255 77400.00000 0 2396607.443 11044094.660 -22861844.062 10 0 59255 78300.00000 0 -84843.135 12317638.625 -22331224.262 10 0 59255 79200.00000 0 -2389200.754 13719058.543 -21366682.977 10 0 59255 80100.00000 0 -4467873.651 15200661.335 -19986988.000 10 0 59255 81000.00000 0 -6282419.748 16707822.021 -18218970.436 10 0 59255 81900.00000 0 -7805891.560 18181234.390 -16097002.325 10 0 59255 82800.00000 0 -9023696.889 19559377.493 -13662327.938 10 0 59255 83700.00000 0 -9933940.798 20781094.671 -10962261.527 10 0 59255 84600.00000 0 -10547235.952 21788176.858 -8049266.980 10 0 59255 85500.00000 0 -10885990.675 22527841.597 -4979937.295 99